Location: Bakhuizen
(52.8696°N, 5.4575°E)
Time: 13:18:33
(UTC+00:00)

Cosmos 1470 Rocket - Pass Details

Date: 11 May 2021
Orbit: 603 x 633 km, 82.5° (Epoch: 19 June)

Event Time Altitude Azimuth Distance (km) Brightness Sun altitude
Rises 20:43:41 0° 347° (NNW) 2,940 8.3 -10.0°
Reaches altitude 10° 20:45:56 10° 346° (NNW) 2,030 7.3 -10.2°
Maximum altitude 20:50:26 72° 262° (W) 670 3.8 -10.7°
Drops below altitude 10° 20:54:53 10° 179° (S) 2,015 5.7 -11.1°
Enters shadow 20:55:01 - 178° (S) 2,065 5.8 -11.1°
